CW0009 Weather Reports


Display with metric or nautical units.
time (UTC)temp
F
wind
direction
speed
MPH
gust
MPH
rain 1hr
in
rain 24hr
in
rain mn
in
humidity
%
barometer
mb
20190116094011 42 175 13.0 17.0 0.00 0.00 0.00 80 1011.0
20190116093013 42 185 13.0 16.0 0.00 0.00 0.00 80 1011.0
20190116092011 42 185 14.0 18.0 0.00 0.00 0.00 80 1011.0
20190116091032 42 180 13.0 14.0 0.00 0.00 0.00 80 1011.0
20190116090009 42 180 13.0 14.0 0.00 0.00 0.00 80 1011.0
20190116085011 42 180 13.0 16.0 0.00 0.00 0.00 80 1011.0
20190116084033 42 180 12.0 14.0 0.00 0.00 0.00 81 1011.0
20190116083012 42 170 13.0 14.0 0.00 0.00 0.00 81 1011.0
20190116082011 42 185 13.0 13.0 0.00 0.00 0.00 81 1011.0
20190116081011 42 185 13.0 18.0 0.00 0.00 0.00 81 1011.0
20190116080031 42 175 12.0 13.0 0.00 0.00 0.00 81 1011.0
20190116075012 42 180 13.0 13.0 0.00 0.00 0.00 81 1011.0
20190116074012 42 185 14.0 15.0 0.00 0.00 0.00 81 1011.0
20190116073012 42 185 14.0 16.0 0.00 0.00 0.00 81 1011.0
20190116072011 42 190 14.0 17.0 0.00 0.00 0.00 82 1011.0
20190116071011 42 180 12.0 16.0 0.00 0.00 0.00 82 1012.0
20190116065011 42 185 10.0 10.0 0.00 0.00 0.00 82 1011.0
20190116064034 42 185 12.0 15.0 0.00 0.00 0.00 82 1011.0
20190116063011 42 190 10.0 13.0 0.00 0.00 0.00 82 1012.0
20190116062011 42 180 12.0 13.0 0.00 0.00 0.00 82 1012.0
20190116061012 43 185 10.0 13.0 0.00 0.00 0.00 83 1012.0
20190116060009 43 195 10.0 12.0 0.00 0.00 0.00 83 1012.0
20190116055032 43 180 10.0 14.0 0.00 0.00 0.00 83 1012.0
20190116054011 43 190 9.0 12.0 0.00 0.00 0.00 83 1012.0
20190116053012 43 185 8.0 12.0 0.00 0.00 0.00 83 1012.0
20190116052012 43 190 9.0 9.0 0.00 0.00 0.00 83 1012.0
20190116051011 43 185 10.0 12.0 0.00 0.00 0.00 83 1012.0
20190116045011 43 185 9.0 10.0 0.00 0.00 0.00 82 1012.0
20190116044011 43 180 9.0 13.0 0.00 0.00 0.00 82 1012.0
20190116043011 43 185 9.0 9.0 0.00 0.00 0.00 83 1013.0
20190116042033 43 185 9.0 10.0 0.00 0.00 0.00 83 1013.0
20190116041012 43 185 8.0 10.0 0.00 0.00 0.00 83 1013.0
20190116040010 43 185 9.0 9.0 0.00 0.00 0.00 83 1013.0
20190116035011 43 190 10.0 13.0 0.00 0.00 0.00 83 1013.0
20190116034012 43 190 10.0 13.0 0.00 0.00 0.00 83 1013.0
20190116033011 43 185 12.0 10.0 0.00 0.00 0.00 83 1013.0
20190116032011 43 185 12.0 14.0 0.00 0.00 0.00 83 1013.0
20190116031032 43 190 10.0 13.0 0.00 0.00 0.00 83 1014.0
20190116030009 43 190 10.0 12.0 0.00 0.00 0.00 83 1014.0
20190116025033 43 185 12.0 12.0 0.00 0.00 0.00 83 1014.0
20190116023013 43 190 10.0 12.0 0.00 0.00 0.00 83 1014.0
20190116022011 43 190 12.0 14.0 0.00 0.00 0.00 83 1014.0
20190116021012 43 190 12.0 14.0 0.00 0.00 0.00 83 1014.0
20190116020010 43 185 12.0 14.0 0.00 0.00 0.00 83 1014.0
20190116015011 44 175 10.0 13.0 0.00 0.00 0.00 83 1014.0
20190116014013 44 185 10.0 12.0 0.00 0.00 0.00 83 1014.0
20190116013033 44 185 10.0 13.0 0.00 0.00 0.00 83 1015.0
20190116012012 44 185 8.0 10.0 0.00 0.00 0.00 83 1015.0
20190116010010 44 185 9.0 12.0 0.00 0.00 0.00 83 1015.0
20190116004011 44 180 9.0 10.0 0.00 0.00 0.00 83 1015.0
20190116003012 44 195 12.0 13.0 0.00 0.00 0.00 83 1015.0
20190116002013 44 195 12.0 16.0 0.00 0.00 0.00 83 1015.0
20190116001032 44 185 10.0 13.0 0.00 0.00 0.00 83 1015.0
20190116000010 44 190 10.0 12.0 0.00 0.00 0.00 83 1015.0
20190115235032 44 195 10.0 13.0 0.00 0.00 0.00 82 1015.0
20190115234011 44 190 9.0 12.0 0.00 0.00 0.00 82 1015.0
20190115233032 44 190 8.0 10.0 0.00 0.00 0.00 82 1015.0
20190115232011 44 185 9.0 9.0 0.00 0.00 0.00 82 1015.0
20190115231012 44 205 10.0 12.0 0.00 0.00 0.00 82 1015.0
20190115230010 44 200 10.0 13.0 0.00 0.00 0.00 82 1016.0
20190115225033 44 190 12.0 13.0 0.00 0.00 0.00 82 1016.0
20190115224011 44 190 12.0 13.0 0.00 0.00 0.00 82 1016.0
20190115223012 44 190 12.0 14.0 0.00 0.00 0.00 82 1016.0
20190115222011 44 190 12.0 14.0 0.00 0.00 0.00 82 1016.0
20190115221011 44 190 12.0 13.0 0.00 0.00 0.00 82 1016.0
20190115220009 44 190 12.0 12.0 0.00 0.00 0.00 82 1016.0
20190115214012 44 185 14.0 17.0 0.00 0.00 0.00 81 1016.0
20190115213013 44 190 14.0 16.0 0.00 0.00 0.00 81 1016.0
20190115212012 44 190 13.0 16.0 0.00 0.00 0.00 81 1016.0
20190115211013 44 185 12.0 15.0 0.00 0.01 0.00 81 1016.0
20190115210010 44 185 13.0 13.0 0.00 0.01 0.00 81 1016.0
20190115205032 44 190 12.0 14.0 0.00 0.01 0.00 81 1016.0
20190115204011 44 180 10.0 14.0 0.00 0.01 0.00 81 1016.0
20190115203012 44 190 10.0 13.0 0.00 0.01 0.00 81 1016.0
20190115202012 44 185 12.0 14.0 0.00 0.01 0.00 81 1016.0
20190115201014 44 195 11.0 14.0 0.00 0.01 0.00 81 1016.0
20190115200010 44 190 12.0 13.0 0.00 0.01 0.00 81 1016.0
20190115195013 44 185 10.0 14.0 0.00 0.01 0.00 81 1017.0
20190115194011 44 185 9.0 12.0 0.00 0.01 0.00 82 1017.0
20190115193012 44 200 10.0 12.0 0.00 0.01 0.00 82 1017.0
20190115192011 44 185 9.0 12.0 0.00 0.01 0.00 82 1017.0
20190115191013 44 195 9.0 10.0 0.00 0.01 0.00 82 1017.0
20190115190010 44 190 9.0 10.0 0.00 0.01 0.00 82 1017.0
20190115185011 44 195 8.0 10.0 0.00 0.01 0.00 82 1017.0
20190115184032 44 185 8.0 9.0 0.00 0.01 0.00 82 1017.0
20190115183012 44 195 7.0 9.0 0.00 0.01 0.00 82 1017.0
20190115181013 44 200 7.0 9.0 0.00 0.01 0.00 82 1017.0
20190115180031 44 185 7.0 9.0 0.00 0.01 0.00 82 1017.0
20190115175012 44 200 7.0 7.0 0.00 0.01 0.00 83 1017.0
20190115174033 44 190 7.0 7.0 0.00 0.01 0.00 83 1017.0
20190115173012 44 190 8.0 10.0 0.00 0.01 0.00 83 1017.0
20190115172011 44 195 8.0 9.0 0.00 0.01 0.00 83 1017.0
20190115171033 44 205 9.0 9.0 0.00 0.01 0.00 83 1017.0
20190115170010 44 195 8.0 12.0 0.00 0.01 0.00 83 1017.0
20190115165011 44 195 8.0 9.0 0.00 0.01 0.00 83 1017.0
20190115164033 44 195 10.0 9.0 0.00 0.01 0.00 83 1017.0
20190115163033 44 205 10.0 13.0 0.00 0.01 0.00 83 1018.0
20190115162012 44 200 12.0 10.0 0.00 0.01 0.00 83 1018.0
20190115161011 44 200 12.0 14.0 0.00 0.01 0.00 84 1018.0
20190115160010 44 195 12.0 13.0 0.00 0.01 0.00 84 1017.0
20190115155033 44 210 12.0 18.0 0.00 0.01 0.00 84 1018.0
20190115154012 44 220 12.0 14.0 0.00 0.01 0.00 84 1018.0
20190115153012 44 205 12.0 13.0 0.00 0.01 0.00 84 1018.0
20190115152011 44 195 12.0 16.0 0.00 0.01 0.00 84 1018.0
20190115151012 44 205 12.0 10.0 0.00 0.01 0.00 85 1018.0
20190115150010 44 210 10.0 14.0 0.00 0.01 0.00 85 1018.0
20190115145011 44 205 8.0 12.0 0.00 0.01 0.00 85 1018.0
20190115144011 44 210 9.0 8.0 0.00 0.01 0.00 85 1018.0
20190115143012 44 205 10.0 13.0 0.00 0.01 0.00 85 1018.0
20190115142011 44 190 9.0 10.0 0.00 0.01 0.00 85 1018.0
20190115141014 44 200 9.0 12.0 0.00 0.01 0.00 85 1018.0
20190115140031 44 200 9.0 12.0 0.00 0.01 0.00 85 1018.0
20190115135012 44 195 9.0 12.0 0.00 0.01 0.00 85 1018.0
20190115134011 44 195 9.0 10.0 0.00 0.01 0.00 85 1018.0
20190115133012 44 200 9.0 10.0 0.00 0.01 0.00 85 1018.0
20190115132011 44 195 9.0 13.0 0.00 0.01 0.00 86 1018.0
20190115131011 44 210 8.0 13.0 0.00 0.01 0.00 86 1018.0
20190115130010 44 210 9.0 9.0 0.00 0.01 0.00 86 1019.0
20190115125011 44 200 12.0 12.0 0.00 0.01 0.00 86 1019.0
20190115124011 44 200 12.0 16.0 0.00 0.01 0.00 86 1019.0
20190115123011 44 215 12.0 13.0 0.00 0.01 0.00 86 1019.0
20190115122011 44 200 10.0 14.0 0.00 0.03 0.00 86 1019.0
20190115121012 44 215 12.0 13.0 0.00 0.03 0.00 86 1019.0
20190115115011 44 210 10.0 15.0 0.00 0.03 0.00 86 1019.0
20190115114012 44 205 12.0 14.0 0.00 0.03 0.00 86 1019.0
20190115113012 43 220 12.0 15.0 0.00 0.03 0.00 86 1019.0
20190115112012 43 230 9.0 12.0 0.00 0.03 0.00 86 1019.0
20190115111012 43 210 10.0 13.0 0.00 0.06 0.00 87 1019.0
20190115110009 43 225 10.0 12.0 0.00 0.06 0.00 87 1019.0
20190115105033 42 220 12.0 12.0 0.00 0.06 0.00 87 1019.0
20190115104011 42 200 10.0 12.0 0.00 0.06 0.00 87 1019.0
20190115103012 42 215 10.0 13.0 0.00 0.06 0.00 87 1019.0
20190115102011 42 210 9.0 12.0 0.00 0.06 0.00 87 1020.0
20190115100010 41 190 10.0 13.0 0.00 0.06 0.00 87 1020.0
20190115095032 41 205 10.0 13.0 0.00 0.06 0.00 87 1020.0